"Pseudo-MPEC" for P113bul

Created 2020 Aug 2 10:07:11 UT using Find_Orb

Click here for an explanation of pseudo-MPECs

 
 Astrometry: 
     P113bul  C2020 07 25le[UGfU$^R2Astrometry.r]%w7N[qRsdUSZa!lL\!N0Rabo5!N2F51
     P113bul  C2020 07 25lGc.tMdMb@)redacted;b[*/.f06CAB*]:Sroclick'*a]+KhereF51
     P113bul  C2020 07 25k%R/-:P6#1u2fors;vc^=_h!yAMn2V_=[+C3:PNj@explanationF51
     P113bul  C2020 07 25+V;qOWmmo1R8fRYm6%0uCkZ@%uJ-?jlO`c%qVLfA$$a08U1N4A#1F51

Station data:
(F51) Pan-STARRS 1, Haleakala  (N20.707235 W156.255910)  US/Hawaii.
   Observers N. Primak, A. Schultz, S. Watters, J. Thiel, T. Goggia. Measurer
   PS1 Science Consortium. 1.8-m Ritchey-Chrétien + CCD.

Orbital elements:  P113bul
   Perihelion 2020 Jul 25.145336 +/- 39.8 TT =  3:29:17 (JD 2459055.645336)
Epoch 2020 Jul 26.0 TT = JDT 2459056.5   Earth MOID: 0.0763   AutoNEOCP
M   0.64435464 +/- 34               (J2000 ecliptic)
n   0.75392721 +/- 0.456            Peri.  184.56683 +/- 70
a   1.19559227 +/- 0.482            Node   119.87176 +/- 60
e   0.0866561 +/- 0.271             Incl.   17.50265 +/- 16
P   1.31/477.49d           H 25.0   G  0.15   U 12.2  SR
q 1.09198685 +/- 0.358    Q 1.29919770 +/- 23.6
From 4 observations 2020 July 25 (41.2 min); mean residual 0".10
Residuals in arcseconds: 
200725 F51  .08+  .08-    200725 F51  .01+  .17+    
200725 F51  .13-  .03+    200725 F51  .04+  .13-    

Ephemerides (geocentric):
Date (UTC) HH   RA              Dec         delta   r     elong  mag " sig PA
---- -- -- --  -------------   -----------  ------ ------ -----  --- ---- ---
2020 08 02 10  23 11 17.934   -50 50 09.60  .10393 1.0927 136.7 21.9  49d 148
2020 08 02 11  23 11 32.933   -50 55 18.89  .10405 1.0927 136.6 21.9  49d 148
2020 08 02 12  23 11 47.940   -51 00 27.23  .10418 1.0927 136.5 21.9  49d 148
2020 08 02 13  23 12 02.955   -51 05 34.63  .10430 1.0927 136.5 21.9  49d 148
2020 08 02 14  23 12 17.979   -51 10 41.09  .10443 1.0927 136.4 21.9  49d 148
2020 08 02 15  23 12 33.010   -51 15 46.61  .10455 1.0928 136.3 21.9  48d 148
2020 08 02 16  23 12 48.049   -51 20 51.20  .10468 1.0928 136.3 21.9  48d 148
2020 08 02 17  23 13 03.096   -51 25 54.84  .10481 1.0928 136.2 21.9  48d 148
2020 08 02 18  23 13 18.152   -51 30 57.55  .10494 1.0928 136.1 21.9  48d 147
2020 08 02 19  23 13 33.215   -51 35 59.32  .10506 1.0928 136.0 21.9  48d 147
2020 08 02 20  23 13 48.285   -51 41 00.16  .10519 1.0928 136.0 21.9  48d 147
2020 08 02 21  23 14 03.364   -51 46 00.06  .10532 1.0928 135.9 21.9  48d 147
2020 08 02 22  23 14 18.450   -51 50 59.04  .10545 1.0928 135.8 21.9  48d 147
2020 08 02 23  23 14 33.544   -51 55 57.08  .10558 1.0928 135.8 21.9  48d 147
2020 08 03 00  23 14 48.645   -52 00 54.20  .10570 1.0928 135.7 21.9  48d 147
2020 08 03 01  23 15 03.753   -52 05 50.39  .10583 1.0928 135.6 21.9  48d 147
2020 08 03 02  23 15 18.870   -52 10 45.66  .10596 1.0928 135.5 21.9  48d 147
2020 08 03 03  23 15 33.993   -52 15 40.00  .10609 1.0928 135.5 21.9  48d 147
2020 08 03 04  23 15 49.124   -52 20 33.42  .10622 1.0929 135.4 21.9  48d 147
2020 08 03 05  23 16 04.262   -52 25 25.91  .10635 1.0929 135.3 22.0  48d 146
2020 08 03 06  23 16 19.407   -52 30 17.49  .10648 1.0929 135.3 22.0  48d 146
2020 08 03 07  23 16 34.560   -52 35 08.15  .10662 1.0929 135.2 22.0  48d 146
2020 08 03 08  23 16 49.719   -52 39 57.89  .10675 1.0929 135.1 22.0  48d 146
2020 08 03 09  23 17 04.886   -52 44 46.72  .10688 1.0929 135.1 22.0  48d 146
2020 08 03 10  23 17 20.059   -52 49 34.63  .10701 1.0929 135.0 22.0  48d 146
2020 08 03 11  23 17 35.239   -52 54 21.63  .10714 1.0929 134.9 22.0  48d 146
2020 08 03 12  23 17 50.426   -52 59 07.72  .10728 1.0929 134.8 22.0  48d 146
2020 08 03 13  23 18 05.620   -53 03 52.90  .10741 1.0929 134.8 22.0  48d 146
2020 08 03 14  23 18 20.821   -53 08 37.18  .10754 1.0929 134.7 22.0  48d 146
2020 08 03 15  23 18 36.028   -53 13 20.54  .10767 1.0929 134.6 22.0  48d 145
2020 08 03 16  23 18 51.242   -53 18 03.01  .10781 1.0930 134.6 22.0  48d 145
2020 08 03 17  23 19 06.462   -53 22 44.57  .10794 1.0930 134.5 22.0  48d 145
2020 08 03 18  23 19 21.689   -53 27 25.22  .10808 1.0930 134.4 22.0  48d 145
2020 08 03 19  23 19 36.922   -53 32 04.98  .10821 1.0930 134.4 22.0  47d 145
2020 08 03 20  23 19 52.161   -53 36 43.84  .10834 1.0930 134.3 22.0  47d 145
2020 08 03 21  23 20 07.407   -53 41 21.81  .10848 1.0930 134.2 22.0  47d 145
2020 08 03 22  23 20 22.659   -53 45 58.88  .10861 1.0930 134.2 22.0  47d 145
2020 08 03 23  23 20 37.917   -53 50 35.06  .10875 1.0930 134.1 22.0  47d 145
2020 08 04 00  23 20 53.181   -53 55 10.34  .10889 1.0930 134.0 22.0  47d 145
2020 08 04 01  23 21 08.451   -53 59 44.74  .10902 1.0930 134.0 22.0  47d 145
2020 08 04 02  23 21 23.727   -54 04 18.25  .10916 1.0930 133.9 22.0  47d 144
2020 08 04 03  23 21 39.009   -54 08 50.87  .10929 1.0931 133.8 22.0  47d 144
2020 08 04 04  23 21 54.297   -54 13 22.61  .10943 1.0931 133.7 22.1  47d 144
2020 08 04 05  23 22 09.590   -54 17 53.46  .10957 1.0931 133.7 22.1  47d 144
2020 08 04 06  23 22 24.889   -54 22 23.44  .10971 1.0931 133.6 22.1  47d 144
2020 08 04 07  23 22 40.194   -54 26 52.53  .10984 1.0931 133.5 22.1  47d 144
2020 08 04 08  23 22 55.505   -54 31 20.75  .10998 1.0931 133.5 22.1  47d 144
2020 08 04 09  23 23 10.820   -54 35 48.09  .11012 1.0931 133.4 22.1  47d 144